Location: Staunton
(38.1490°N, 79.0720°W)
Time: 12:42:38
(UTC-04:00)

ISS - Pass Details

Date: 21 March 2017
Orbit: 400 x 408 km, 51.6° (Epoch: 24 July)

Event Time Altitude Azimuth Distance (km) Brightness Sun altitude
Exits shadow 04:23:44 - 50° (NE) 1,620 0.1 -33.5°
Enters shadow 05:25:15 -61° 293° (WNW) 11,667 3.5 -22.6°
Maximum altitude 05:59:01 45° 35° (NE) 578 -2.7 -16.2°
